| time (UTC) | temp F | wind direction | speed MPH | gust MPH | rain 1hr in | rain 24hr in | rain mn in | humidity % | barometer mb |
| 20260503200015 | 94 | 158 | 7.0 | 19.0 | 0.00 | 0.00 | 0.00 | 15 | 1011.9 |
| 20260503194517 | 93 | 203 | 4.0 | 12.0 | 0.00 | 0.00 | 0.00 | 19 | 1011.9 |
| 20260503193015 | 92 | 225 | 5.0 | 14.0 | 0.00 | 0.00 | 0.00 | 20 | 1012.0 |
| 20260503191515 | 92 | 135 | 5.0 | 13.0 | 0.00 | 0.00 | 0.00 | 21 | 1012.4 |
| 20260503190036 | 93 | 158 | 4.0 | 10.0 | 0.00 | 0.00 | 0.00 | 21 | 1012.6 |
| 20260503184517 | 92 | 90 | 2.0 | 6.0 | 0.00 | 0.00 | 0.00 | 22 | 1012.8 |
| 20260503183015 | 91 | 90 | 3.0 | 15.0 | 0.00 | 0.00 | 0.00 | 23 | 1013.2 |
| 20260503181557 | 91 | 225 | 2.0 | 6.0 | 0.00 | 0.00 | 0.00 | 23 | 1013.2 |
| 20260503180035 | 90 | 225 | 3.0 | 8.0 | 0.00 | 0.00 | 0.00 | 23 | 1013.6 |
| 20260503174515 | 89 | 113 | 2.0 | 7.0 | 0.00 | 0.00 | 0.00 | 23 | 1013.5 |
| 20260503173015 | 88 | 203 | 3.0 | 9.0 | 0.00 | 0.00 | 0.00 | 26 | 1013.5 |
| 20260503171536 | 87 | 113 | 5.0 | 15.0 | 0.00 | 0.00 | 0.00 | 26 | 1013.6 |
| 20260503081515 | 78 | 135 | 3.0 | 7.0 | 0.00 | 0.00 | 0.00 | 35 | 1012.3 |
| 20260503071516 | 78 | 135 | 1.0 | 3.0 | 0.00 | 0.00 | 0.00 | 33 | 1012.5 |
| 20260503054515 | 80 | 0.0 | 2.0 | 0.00 | 0.00 | 0.00 | 33 | 1011.8 | |
| 20260503053016 | 81 | 293 | 1.0 | 4.0 | 0.00 | 0.00 | 0.00 | 32 | 1011.6 |
| 20260503051516 | 81 | 0 | 3.0 | 5.0 | 0.00 | 0.00 | 0.00 | 32 | 1011.5 |
| 20260503050036 | 84 | 248 | 2.0 | 7.0 | 0.00 | 0.00 | 0.00 | 30 | 1011.1 |
| 20260503044516 | 84 | 248 | 4.0 | 9.0 | 0.00 | 0.00 | 0.00 | 29 | 1011.1 |
| 20260503043056 | 85 | 248 | 5.0 | 10.0 | 0.00 | 0.00 | 0.00 | 29 | 1010.9 |
| 20260503041516 | 85 | 248 | 3.0 | 7.0 | 0.00 | 0.00 | 0.00 | 29 | 1010.7 |
| 20260503040015 | 85 | 248 | 3.0 | 9.0 | 0.00 | 0.00 | 0.00 | 28 | 1010.3 |
| 20260503034515 | 86 | 248 | 5.0 | 11.0 | 0.00 | 0.00 | 0.00 | 28 | 1010.1 |
| 20260503033016 | 86 | 248 | 6.0 | 11.0 | 0.00 | 0.00 | 0.00 | 28 | 1009.8 |
| 20260503031515 | 87 | 248 | 6.0 | 12.0 | 0.00 | 0.00 | 0.00 | 27 | 1009.7 |
| 20260503030015 | 87 | 248 | 7.0 | 13.0 | 0.00 | 0.00 | 0.00 | 27 | 1009.4 |
| 20260503024516 | 88 | 248 | 7.0 | 14.0 | 0.00 | 0.00 | 0.00 | 27 | 1009.5 |
| 20260503023036 | 88 | 248 | 8.0 | 14.0 | 0.00 | 0.00 | 0.00 | 26 | 1009.4 |
| 20260503021516 | 89 | 248 | 8.0 | 16.0 | 0.00 | 0.00 | 0.00 | 26 | 1009.2 |
| 20260503020015 | 89 | 248 | 9.0 | 16.0 | 0.00 | 0.00 | 0.00 | 26 | 1008.9 |
| 20260503014516 | 90 | 248 | 7.0 | 17.0 | 0.00 | 0.00 | 0.00 | 25 | 1008.7 |
| 20260503013035 | 91 | 248 | 7.0 | 16.0 | 0.00 | 0.00 | 0.00 | 25 | 1008.6 |
| 20260503011515 | 92 | 248 | 8.0 | 17.0 | 0.00 | 0.00 | 0.00 | 24 | 1008.6 |
| 20260503010016 | 93 | 248 | 8.0 | 16.0 | 0.00 | 0.00 | 0.00 | 25 | 1008.5 |
| 20260503004536 | 94 | 248 | 8.0 | 17.0 | 0.00 | 0.00 | 0.00 | 25 | 1008.6 |
| 20260503003015 | 94 | 248 | 8.0 | 16.0 | 0.00 | 0.00 | 0.00 | 25 | 1008.3 |
| 20260503001516 | 95 | 293 | 7.0 | 17.0 | 0.00 | 0.00 | 0.00 | 25 | 1008.4 |
| 20260503000015 | 95 | 248 | 7.0 | 16.0 | 0.00 | 0.00 | 0.00 | 25 | 1008.4 |
| 20260502234516 | 96 | 293 | 8.0 | 17.0 | 0.00 | 0.00 | 0.00 | 25 | 1008.3 |
| 20260502233015 | 96 | 293 | 7.0 | 17.0 | 0.00 | 0.00 | 0.00 | 24 | 1008.1 |
| 20260502231517 | 97 | 293 | 5.0 | 14.0 | 0.00 | 0.00 | 0.00 | 22 | 1008.1 |
| 20260502230015 | 97 | 225 | 3.0 | 9.0 | 0.00 | 0.00 | 0.00 | 21 | 1008.1 |
| 20260502224516 | 97 | 293 | 7.0 | 17.0 | 0.00 | 0.00 | 0.00 | 21 | 1008.4 |
| 20260502223015 | 98 | 203 | 5.0 | 9.0 | 0.00 | 0.00 | 0.00 | 21 | 1008.5 |
| 20260502221517 | 98 | 293 | 5.0 | 14.0 | 0.00 | 0.00 | 0.00 | 21 | 1008.5 |
| 20260502220016 | 97 | 293 | 3.0 | 8.0 | 0.00 | 0.00 | 0.00 | 20 | 1008.3 |
| 20260502214516 | 98 | 248 | 4.0 | 11.0 | 0.00 | 0.00 | 0.00 | 20 | 1008.8 |
| 20260502213015 | 98 | 293 | 5.0 | 11.0 | 0.00 | 0.00 | 0.00 | 20 | 1008.9 |
| 20260502211516 | 98 | 293 | 4.0 | 12.0 | 0.00 | 0.00 | 0.00 | 19 | 1009.2 |
| 20260502210036 | 97 | 158 | 5.0 | 12.0 | 0.00 | 0.00 | 0.00 | 21 | 1009.6 |
| 20260502204515 | 97 | 315 | 3.0 | 13.0 | 0.00 | 0.00 | 0.00 | 20 | 1009.9 |
| 20260502203016 | 98 | 203 | 3.0 | 11.0 | 0.00 | 0.00 | 0.00 | 20 | 1010.4 |
| 20260502201516 | 95 | 68 | 3.0 | 15.0 | 0.00 | 0.00 | 0.00 | 21 | 1010.4 |